Flag for Guatemala

Past Weather in Municipio de Panajachel, Guatemala — Yesterday and Last 2 Weeks

Now
68 °F

Passing clouds.


Feels Like: 68 °F
Forecast: 76 / 58 °F
Wind: 5 mph from Southwest

Location: Guatemala Aeropuertola Aurora

Current Time: Apr 23, 2019 at 8:52:01 pm

Latest Report: Apr 23, 2019 at 8:00 pm


Visibility: 4 mi

Pressure: 30.21 "Hg

Humidity: 83%

Dew Point: 63 °F

Location of Municipio de PanajachelLocation

Past Weather in Municipio de Panajachel — Graph

°F

Municipio de Panajachel Temperature Yesterday

Maximum temperature yesterday: 82 °F (at 2:00 pm)
Minimum temperature yesterday: 57 °F (at 4:00 am)
Average temperature yesterday: 68 °F

High & Low Weather Summary for the Past Weeks

 TemperatureHumidityPressure
High84 °F (Apr 14, 2:00 pm)100% (Apr 17, 5:00 am)30.39 "Hg (Apr 17, 5:00 am)
Low57 °F (Apr 20, 6:00 am)21% (Apr 21, 3:00 pm)30.07 "Hg (Apr 20, 1:00 am)
Average69 °F69%30.24 "Hg
* Reported Apr 8 7:00 pm — Apr 23 7:00 pm, Municipio de Panajachel. Weather by CustomWeather, © 2019

Note: Actual official high and low records may vary slightly from our data, if they occured in-between our weather recording intervals... More about our weather records

Advertising

Municipio de Panajachel Weather History for the Previous 24 Hours

Scroll right to see more
 ConditionsComfort  
Time TempWeatherWind HumidityBarometerVisibility
7:00 pm
Tue, Apr 23
70 °FPassing clouds.9 mph78%30.21 "Hg4 mi
6:00 pm72 °FPassing clouds.12 mph73%30.18 "Hg4 mi
5:00 pm75 °FPassing clouds.12 mph61%30.15 "Hg4 mi
4:00 pm79 °FScattered clouds.9 mph54%30.15 "Hg4 mi
3:00 pm79 °FPartly sunny.12 mph51%30.18 "Hg5 mi
2:00 pm79 °FPartly sunny.9 mph51%30.18 "Hg5 mi
1:00 pm81 °FPartly sunny.14 mph48%30.21 "Hg5 mi
12:00 pm81 °FScattered clouds.9 mph42%30.24 "Hg5 mi
11:00 am77 °FScattered clouds.7 mph47%30.24 "Hg5 mi
10:00 am75 °FScattered clouds.9 mph50%30.27 "Hg5 mi
9:00 am72 °FScattered clouds.No wind61%30.30 "Hg5 mi
8:00 am66 °FPartly sunny.5 mph73%30.30 "Hg5 mi
7:00 am63 °FPartly sunny.6 mph83%30.30 "Hg5 mi
6:00 am59 °FPartly sunny.7 mph88%30.30 "HgN/A
5:00 am61 °FPassing clouds.7 mph88%30.27 "HgN/A
4:00 am61 °FPassing clouds.7 mph88%30.27 "HgN/A
3:00 am61 °FPassing clouds.12 mph88%30.27 "HgN/A
2:00 am61 °FPassing clouds.12 mph94%30.30 "HgN/A
1:00 am63 °FPassing clouds.14 mph88%30.30 "HgN/A
11:00 pm
Mon, Apr 22
64 °FPassing clouds.7 mph78%30.33 "HgN/A
10:00 pm68 °FPassing clouds.7 mph64%30.33 "Hg5 mi
9:00 pm66 °FPassing clouds.2 mph88%30.30 "Hg4 mi
8:00 pm68 °FPassing clouds.5 mph83%30.27 "Hg4 mi
Weather by CustomWeather, © 2019

See weather overview